KG1ZR Weather Reports


time (UTC)temp
F
wind
direction
speed
knots
gust
knots
rain 1hr
in
rain 24hr
in
rain mn
in
humidity
%
barometer
mb
20260506071357 52 198 2.6 5.2 0.00 0.01 0.00 78 1006.9
20260506070357 52 137 1.7 5.2 0.00 0.01 0.00 78 1006.7
20260506062357 53 157 4.3 9.6 0.00 0.01 0.00 78 1006.6
20260506061357 53 189 4.3 8.7 0.00 0.01 0.00 78 1006.7
20260506060350 53 239 3.5 7.0 0.00 0.01 0.00 78 1006.5
20260506051351 54 180 3.5 8.7 0.00 0.01 0.00 78 1006.4
20260506050351 55 194 4.3 8.7 0.00 0.01 0.00 78 1006.5
20260506044826 56 163 3.5 9.6 0.00 0.01 0.00 78 1006.7
20260506043823 56 273 3.5 7.0 0.00 0.01 0.00 78 1006.7
20260506042349 56 184 2.6 5.2 0.00 0.01 0.00 78 1006.5
20260506041349 57 159 2.6 5.2 0.00 0.01 0.00 77 1006.4
20260506040349 57 185 3.5 6.1 0.00 0.01 0.00 77 1006.1
20260506035348 58 194 2.6 5.2 0.00 0.01 0.01 77 1006.2
20260506034346 58 271 2.6 7.8 0.00 0.01 0.01 77 1006.1
20260506033346 58 173 3.5 7.8 0.00 0.01 0.01 77 1006.0
20260506032346 59 198 3.5 7.8 0.00 0.01 0.01 76 1006.1
20260506031827 59 223 2.6 6.1 0.00 0.01 0.01 76 1005.9
20260506030346 59 135 2.6 7.8 0.00 0.01 0.01 76 1006.2
20260506025346 59 200 1.7 5.2 0.00 0.01 0.01 77 1006.4
20260506024346 59 187 3.5 7.0 0.00 0.01 0.01 77 1006.2
20260506023345 59 207 3.5 7.0 0.00 0.01 0.01 77 1006.3
20260506022346 58 219 3.5 7.0 0.00 0.01 0.01 77 1006.4
20260506022255 58 169 2.6 7.0 0.00 0.01 0.01 77 1006.4
20260506020828 58 210 3.5 7.0 0.00 0.01 0.01 77 1006.5
20260506015346 58 224 2.6 7.0 0.00 0.01 0.01 77 1006.4
20260506014340 59 187 3.5 11.3 0.00 0.01 0.01 77 1006.6
20260506013340 60 123 5.2 11.3 0.00 0.01 0.01 77 1007.0
20260506012339 60 167 4.3 10.4 0.00 0.01 0.01 75 1006.5
20260506011339 60 165 2.6 6.1 0.00 0.01 0.01 73 1006.1
20260506010340 59 196 1.7 3.5 0.00 0.01 0.01 71 1005.8
20260506005339 59 164 0.9 1.7 0.00 0.01 0.01 71 1005.6
20260506004338 60 184 0.0 0.9 0.00 0.01 0.01 72 1005.5
20260506003338 60 184 0.0 1.7 0.00 0.01 0.01 73 1005.4
20260506002338 60 226 0.0 0.0 0.00 0.01 0.01 74 1005.4
20260506001332 61 226 0.0 2.6 0.01 0.01 0.01 76 1005.2
20260506000807 62 91 0.9 2.6 0.01 0.01 0.01 76 1004.8
20260505235329 63 150 0.0 3.5 0.01 0.01 0.01 77 1005.1
20260505234329 64 150 0.9 3.5 0.01 0.01 0.01 77 1005.4
20260505233329 64 200 0.9 3.5 0.01 0.01 0.01 76 1005.8
20260505232329 64 259 2.6 9.6 0.01 0.01 0.01 76 1006.0
20260505231805 64 269 2.6 9.6 0.00 0.00 0.00 75 1005.6
20260505230328 66 277 1.7 8.7 0.00 0.00 0.00 69 1005.2
20260505225813 67 233 3.5 12.2 0.00 0.00 0.00 63 1004.8
20260505224328 66 297 5.2 13.9 0.00 0.00 0.00 62 1004.9
20260505223329 66 242 7.0 13.9 0.00 0.00 0.00 61 1002.6
20260505222329 66 178 6.1 14.8 0.00 0.00 0.00 61 1002.5
20260505221328 67 180 5.2 15.6 0.00 0.00 0.00 61 1002.2
20260505220328 67 198 6.1 15.6 0.00 0.00 0.00 60 1002.1
20260505215329 67 192 5.2 14.8 0.00 0.00 0.00 60 1002.1
20260505214328 68 170 5.2 13.0 0.00 0.00 0.00 59 1002.0
20260505213329 68 154 5.2 12.2 0.00 0.00 0.00 59 1002.0
20260505212330 68 179 5.2 15.6 0.00 0.00 0.00 59 1002.0
20260505211329 69 148 7.0 14.8 0.00 0.00 0.00 60 1001.7
20260505210329 69 242 6.1 20.9 0.00 0.00 0.00 59 1001.8
20260505205329 70 215 6.1 20.9 0.00 0.00 0.00 58 1001.9
20260505204328 70 206 7.8 19.1 0.00 0.00 0.00 57 1002.0
20260505203329 70 210 6.1 19.1 0.00 0.00 0.00 55 1002.1
20260505202329 71 178 9.6 23.5 0.00 0.00 0.00 55 1001.9
20260505201329 71 195 8.7 23.5 0.00 0.00 0.00 54 1002.1
20260505200328 71 203 9.6 21.7 0.00 0.00 0.00 54 1002.0
20260505195330 72 187 10.4 23.5 0.00 0.00 0.00 54 1002.1
20260505194329 73 202 7.8 18.2 0.00 0.00 0.00 53 1002.2
20260505193328 73 111 6.1 20.0 0.00 0.00 0.00 53 1002.3
20260505192809 73 142 6.1 20.0 0.00 0.00 0.00 55 1002.3
20260505191808 73 186 7.0 19.1 0.00 0.00 0.00 53 1002.5
20260505190328 73 175 8.7 17.4 0.00 0.00 0.00 54 1002.6
20260505185328 74 210 7.8 15.6 0.00 0.00 0.00 54 1002.7
20260505184328 74 142 7.0 16.5 0.00 0.00 0.00 55 1002.8
20260505183325 74 225 6.1 15.6 0.00 0.00 0.00 53 1002.9
20260505182324 74 123 5.2 13.9 0.00 0.00 0.00 52 1003.0
20260505181800 74 149 5.2 12.2 0.00 0.00 0.00 58 1003.0
20260505180323 73 128 6.1 16.5 0.00 0.00 0.00 55 1003.2
20260505175324 73 168 6.1 13.9 0.00 0.00 0.00 54 1003.3
20260505174324 73 103 6.1 14.8 0.00 0.00 0.00 55 1003.4
20260505173322 72 181 6.1 13.0 0.00 0.01 0.00 57 1003.5
20260505172322 71 232 6.1 14.8 0.00 0.01 0.00 57 1003.9
20260505171318 71 146 6.1 14.8 0.00 0.01 0.00 57 1003.9
20260505170804 70 209 6.1 15.6 0.00 0.01 0.00 57 1004.1
20260505165318 70 225 7.0 16.5 0.00 0.02 0.00 56 1004.2
20260505164803 69 190 5.2 14.8 0.00 0.02 0.00 57 1004.5
20260505163759 69 213 5.2 14.8 0.00 0.02 0.00 61 1004.9
20260505162316 68 217 6.1 20.0 0.00 0.02 0.00 59 1004.9
20260505161316 68 193 7.8 20.0 0.00 0.02 0.00 57 1005.0
20260505160314 69 108 7.0 15.6 0.00 0.02 0.00 55 1005.0
20260505153314 69 111 4.3 12.2 0.00 0.02 0.00 59 1005.4
20260505152314 69 173 4.3 9.6 0.00 0.02 0.00 58 1005.9
20260505151314 69 199 4.3 10.4 0.00 0.02 0.00 57 1005.8
20260505150315 67 146 4.3 9.6 0.00 0.02 0.00 60 1005.8
20260505140305 64 132 5.2 13.0 0.00 0.02 0.00 60 1005.7
20260505130305 59 189 4.3 12.2 0.00 0.02 0.00 68 1006.2
20260505124305 58 229 3.5 8.7 0.00 0.02 0.00 69 1006.1
20260505123305 58 204 3.5 10.4 0.00 0.02 0.00 70 1006.3
20260505122306 57 178 4.3 10.4 0.00 0.02 0.00 70 1006.3
20260505121306 56 173 3.5 11.3 0.00 0.02 0.00 71 1006.3
20260505120745 56 193 6.1 11.3 0.00 0.02 0.00 72 1006.3
20260505115305 55 195 3.5 10.4 0.00 0.02 0.00 73 1006.6
20260505114305 54 192 4.3 7.8 0.00 0.02 0.00 74 1006.4
20260505113305 53 208 3.5 9.6 0.00 0.02 0.00 75 1006.6
20260505112305 53 252 3.5 9.6 0.00 0.02 0.00 76 1006.4
20260505111741 52 200 4.3 9.6 0.00 0.02 0.00 76 1006.5
20260505110306 51 178 4.3 8.7 0.00 0.02 0.00 77 1006.4
20260505101305 50 113 2.6 6.1 0.00 0.02 0.00 77 1006.3
20260505100306 50 165 2.6 7.0 0.00 0.02 0.00 77 1006.3
20260505095304 50 183 3.5 6.1 0.00 0.02 0.00 77 1006.2
20260505094301 50 223 2.6 7.8 0.00 0.02 0.00 77 1006.3
20260505093302 50 186 2.6 7.8 0.00 0.02 0.00 76 1006.2
20260505092304 51 212 3.5 7.0 0.00 0.02 0.00 76 1006.2
20260505091301 50 203 3.5 7.8 0.00 0.02 0.00 76 1006.2
20260505090302 50 171 2.6 7.8 0.00 0.02 0.00 76 1006.3
20260505085304 51 222 2.6 4.3 0.00 0.02 0.00 75 1006.4
20260505084302 51 261 2.6 6.1 0.00 0.02 0.00 75 1006.4
20260505083302 51 201 2.6 6.1 0.00 0.02 0.00 75 1006.5
20260505082741 51 194 0.9 3.5 0.00 0.02 0.00 75 1006.5
20260505081302 51 234 1.7 6.1 0.00 0.02 0.00 75 1006.5
20260505080302 51 184 1.7 6.1 0.00 0.02 0.00 75 1006.5
20260505075304 50 184 1.7 5.2 0.00 0.02 0.00 75 1006.5
20260505074301 50 191 1.7 5.2 0.00 0.02 0.00 75 1006.5
20260505073301 50 207 2.6 5.2 0.00 0.02 0.00 75 1006.5
20260505072301 50 178 2.6 6.1 0.00 0.02 0.00 74 1006.5